Time,TemperatureF,DewpointF,PressureIn,WindDirection,WindDirectionDegrees,WindSpeedMPH,WindSpeedGustMPH,Humidity,HourlyPrecipIn,Conditions,Clouds,dailyrainin,SolarRadiationWatts/m^2,SoftwareType,DateUTC
2013-03-25 00:00:00,32.2,30.4,29.65,NNE,22,0.0,0.0,90,0.01,,,0.02,0.0,meteohub,2013-03-25 04:00:00,
2013-03-25 00:02:00,32.2,30.4,29.65,NNE,22,0.0,0.0,90,0.00,,,0.02,0.0,meteohub,2013-03-25 04:02:00,
2013-03-25 00:03:00,32.2,30.4,29.64,NNE,22,0.0,0.0,90,0.00,,,0.02,0.0,meteohub,2013-03-25 04:03:00,
2013-03-25 00:06:00,32.4,30.6,29.64,NNE,22,0.0,0.0,90,0.00,,,0.00,0.0,meteohub,2013-03-25 04:06:00,
2013-03-25 00:12:00,32.4,30.6,29.64,NNE,22,0.0,0.0,90,0.00,,,0.00,0.0,meteohub,2013-03-25 04:12:00,
2013-03-25 00:18:00,32.4,30.6,29.64,NNE,22,0.0,0.0,90,0.00,,,0.00,0.0,meteohub,2013-03-25 04:18:00,
2013-03-25 00:24:00,32.2,30.4,29.63,NNE,22,0.0,0.0,90,0.00,,,0.00,0.0,meteohub,2013-03-25 04:24:00,
2013-03-25 00:31:00,32.2,30.4,29.62,NNE,22,0.0,0.0,90,0.00,,,0.00,0.0,meteohub,2013-03-25 04:31:00,
2013-03-25 00:37:00,32.2,30.4,29.62,NNE,22,0.0,0.0,90,0.00,,,0.00,0.0,meteohub,2013-03-25 04:37:00,
2013-03-25 00:42:00,32.2,30.4,29.62,NNE,22,0.0,0.0,90,0.00,,,0.00,0.0,meteohub,2013-03-25 04:42:00,
2013-03-25 00:47:00,32.2,30.4,29.62,NNE,22,0.0,0.0,90,0.00,,,0.00,0.0,meteohub,2013-03-25 04:47:00,
2013-03-25 00:52:00,32.2,30.4,29.62,NNE,22,0.0,0.0,90,0.00,,,0.00,0.0,meteohub,2013-03-25 04:52:00,
2013-03-25 00:57:00,32.2,30.4,29.62,NNE,22,0.0,0.0,90,0.00,,,0.00,0.0,meteohub,2013-03-25 04:57:00,
2013-03-25 01:02:00,32.2,30.4,29.62,NNE,22,0.0,0.0,90,0.00,,,0.00,0.0,meteohub,2013-03-25 05:02:00,
2013-03-25 01:07:00,32.2,30.4,29.62,NNE,22,0.0,0.0,90,0.00,,,0.00,0.0,meteohub,2013-03-25 05:07:00,
2013-03-25 01:13:00,32.2,30.4,29.62,NNE,22,0.0,0.0,90,0.00,,,0.00,0.0,meteohub,2013-03-25 05:13:00,
2013-03-25 01:19:00,32.2,30.4,29.62,NNE,22,0.0,0.0,90,0.00,,,0.00,0.0,meteohub,2013-03-25 05:19:00,
2013-03-25 01:26:00,32.4,30.6,29.62,NNE,22,0.0,0.0,90,0.00,,,0.00,0.0,meteohub,2013-03-25 05:26:00,
2013-03-25 01:32:00,32.4,30.6,29.62,NNE,22,0.0,0.0,90,0.00,,,0.00,0.0,meteohub,2013-03-25 05:32:00,
2013-03-25 01:37:00,32.4,30.6,29.63,NNE,22,0.0,0.0,90,0.00,,,0.00,0.0,meteohub,2013-03-25 05:37:00,
2013-03-25 01:44:00,32.4,30.6,29.63,NNE,22,0.0,0.0,90,0.00,,,0.00,0.0,meteohub,2013-03-25 05:44:00,
2013-03-25 01:50:00,32.2,30.4,29.63,NNE,22,0.0,0.0,90,0.00,,,0.00,0.0,meteohub,2013-03-25 05:50:00,
2013-03-25 01:56:00,32.2,30.4,29.63,NNE,22,0.0,0.0,90,0.00,,,0.00,0.0,meteohub,2013-03-25 05:56:00,
2013-03-25 02:02:00,32.2,30.4,29.63,NNE,22,0.0,0.0,90,0.00,,,0.00,0.0,meteohub,2013-03-25 06:02:00,
2013-03-25 02:07:00,32.2,30.4,29.63,NNE,22,0.0,0.0,90,0.00,,,0.00,0.0,meteohub,2013-03-25 06:07:00,
2013-03-25 02:12:00,32.2,30.4,29.63,NNE,22,0.0,0.0,90,0.00,,,0.00,0.0,meteohub,2013-03-25 06:12:00,
2013-03-25 02:17:00,32.2,30.4,29.63,NNE,22,0.0,0.0,90,0.00,,,0.00,0.0,meteohub,2013-03-25 06:17:00,
2013-03-25 02:23:00,32.2,30.4,29.63,NNE,22,0.0,0.0,90,0.00,,,0.00,0.0,meteohub,2013-03-25 06:23:00,
2013-03-25 02:30:00,32.2,30.4,29.63,NNE,22,0.0,0.0,90,0.00,,,0.00,0.0,meteohub,2013-03-25 06:30:00,
2013-03-25 02:36:00,32.2,30.4,29.63,NNE,22,0.0,0.0,90,0.00,,,0.00,0.0,meteohub,2013-03-25 06:36:00,
2013-03-25 02:42:00,32.2,30.4,29.62,NNE,22,0.0,0.0,90,0.00,,,0.00,0.0,meteohub,2013-03-25 06:42:00,
2013-03-25 02:47:00,32.2,30.4,29.62,NNE,22,0.0,0.0,90,0.00,,,0.00,0.0,meteohub,2013-03-25 06:47:00,
2013-03-25 02:52:00,32.2,30.4,29.62,NNE,22,0.0,0.0,90,0.00,,,0.00,0.0,meteohub,2013-03-25 06:52:00,
2013-03-25 02:57:00,32.2,30.6,29.62,NNE,22,0.0,0.0,91,0.00,,,0.00,0.0,meteohub,2013-03-25 06:57:00,
2013-03-25 03:02:00,32.2,30.6,29.62,NNE,22,0.0,0.0,91,0.00,,,0.00,0.0,meteohub,2013-03-25 07:02:00,
2013-03-25 03:07:00,32.2,30.6,29.62,NNE,22,0.0,0.0,91,0.00,,,0.00,0.0,meteohub,2013-03-25 07:07:00,
2013-03-25 03:12:00,32.2,30.6,29.62,NNE,22,0.0,0.0,91,0.00,,,0.00,0.0,meteohub,2013-03-25 07:12:00,
2013-03-25 03:18:00,32.2,30.6,29.62,NNE,22,0.0,0.0,91,0.00,,,0.00,0.0,meteohub,2013-03-25 07:18:00,
2013-03-25 03:24:00,32.2,30.6,29.62,NNE,22,0.0,0.0,91,0.00,,,0.00,0.0,meteohub,2013-03-25 07:24:00,
2013-03-25 03:31:00,32.2,30.6,29.62,NNE,22,0.0,0.0,91,0.00,,,0.00,0.0,meteohub,2013-03-25 07:31:00,
2013-03-25 03:37:00,32.2,30.6,29.61,NNE,22,0.0,0.0,91,0.00,,,0.00,0.0,meteohub,2013-03-25 07:37:00,
2013-03-25 03:42:00,32.2,30.6,29.61,NNE,22,0.0,0.0,91,0.00,,,0.00,0.0,meteohub,2013-03-25 07:42:00,
2013-03-25 03:47:00,32.2,30.6,29.60,NNE,22,0.0,0.0,91,0.00,,,0.00,0.0,meteohub,2013-03-25 07:47:00,
2013-03-25 03:52:00,32.2,30.6,29.60,NNE,22,0.0,0.0,91,0.00,,,0.00,0.0,meteohub,2013-03-25 07:52:00,
2013-03-25 03:57:00,32.2,30.6,29.61,NNE,22,0.0,0.0,91,0.00,,,0.00,0.0,meteohub,2013-03-25 07:57:00,
2013-03-25 04:02:00,32.2,30.6,29.60,NNE,22,0.0,0.0,91,0.00,,,0.00,0.0,meteohub,2013-03-25 08:02:00,
2013-03-25 04:07:00,32.2,30.6,29.60,NNE,22,0.0,0.0,91,0.00,,,0.00,0.0,meteohub,2013-03-25 08:07:00,
2013-03-25 04:13:00,32.0,30.2,29.59,NNE,22,0.0,0.0,90,0.00,,,0.00,0.0,meteohub,2013-03-25 08:13:00,
2013-03-25 04:19:00,32.0,30.2,29.58,NNE,22,0.0,0.0,90,0.00,,,0.00,0.0,meteohub,2013-03-25 08:19:00,
2013-03-25 04:26:00,32.0,30.4,29.58,NNE,22,0.0,0.0,91,0.00,,,0.00,0.0,meteohub,2013-03-25 08:26:00,
2013-03-25 04:32:00,32.0,30.4,29.58,NNE,22,0.0,0.0,91,0.00,,,0.00,0.0,meteohub,2013-03-25 08:32:00,
2013-03-25 04:37:00,32.0,30.4,29.58,NNE,22,0.0,0.0,91,0.00,,,0.00,0.0,meteohub,2013-03-25 08:37:00,
2013-03-25 04:42:00,32.0,30.4,29.58,NNE,22,0.0,0.0,91,0.00,,,0.00,0.0,meteohub,2013-03-25 08:42:00,
2013-03-25 04:47:00,32.0,30.4,29.58,NNE,22,0.0,0.0,91,0.00,,,0.00,0.0,meteohub,2013-03-25 08:47:00,
2013-03-25 04:53:00,32.0,30.4,29.58,NNE,22,0.0,0.0,91,0.00,,,0.00,0.0,meteohub,2013-03-25 08:53:00,
2013-03-25 04:59:00,32.0,30.4,29.58,NNE,22,0.0,0.0,91,0.00,,,0.00,0.0,meteohub,2013-03-25 08:59:00,
2013-03-25 05:05:00,32.0,30.4,29.58,NNE,22,0.0,0.0,91,0.00,,,0.00,0.0,meteohub,2013-03-25 09:05:00,
2013-03-25 05:11:00,32.0,30.4,29.58,NNE,22,0.0,0.0,91,0.00,,,0.00,0.0,meteohub,2013-03-25 09:11:00,
2013-03-25 05:17:00,32.0,30.4,29.58,NNE,22,0.0,0.0,91,0.00,,,0.00,0.0,meteohub,2013-03-25 09:17:00,
2013-03-25 05:22:00,32.0,30.4,29.58,NNE,22,0.0,0.0,91,0.00,,,0.00,0.0,meteohub,2013-03-25 09:22:00,
2013-03-25 05:27:00,32.0,30.4,29.58,NNE,22,0.0,0.0,91,0.00,,,0.00,0.0,meteohub,2013-03-25 09:27:00,
2013-03-25 05:32:00,32.0,30.4,29.58,NNE,22,0.0,0.0,91,0.00,,,0.00,0.0,meteohub,2013-03-25 09:32:00,
2013-03-25 05:37:00,32.0,30.4,29.58,NNE,22,0.0,0.0,91,0.00,,,0.00,0.0,meteohub,2013-03-25 09:37:00,
2013-03-25 05:42:00,32.0,30.4,29.58,NNE,22,0.0,0.0,91,0.00,,,0.00,0.0,meteohub,2013-03-25 09:42:00,
2013-03-25 05:47:00,32.0,30.4,29.57,NNE,22,0.0,0.0,91,0.00,,,0.00,0.0,meteohub,2013-03-25 09:47:00,
2013-03-25 05:52:00,32.0,30.4,29.57,NNE,22,0.0,0.0,91,0.00,,,0.00,0.0,meteohub,2013-03-25 09:52:00,
2013-03-25 05:57:00,32.0,30.4,29.57,NNE,22,0.0,0.0,91,0.00,,,0.00,0.0,meteohub,2013-03-25 09:57:00,
2013-03-25 06:03:00,32.0,30.4,29.57,NNE,22,0.0,0.0,91,0.00,,,0.00,0.0,meteohub,2013-03-25 10:03:00,
2013-03-25 06:09:00,32.0,30.4,29.57,NNE,22,0.0,0.0,91,0.00,,,0.00,0.0,meteohub,2013-03-25 10:09:00,
2013-03-25 06:16:00,32.0,30.4,29.57,NNE,22,0.0,0.0,91,0.00,,,0.00,0.0,meteohub,2013-03-25 10:16:00,
2013-03-25 06:22:00,32.0,30.4,29.57,NNE,22,0.0,0.0,91,0.00,,,0.00,0.0,meteohub,2013-03-25 10:22:00,
2013-03-25 06:27:00,32.0,30.4,29.57,NNE,22,0.0,0.0,91,0.00,,,0.00,0.0,meteohub,2013-03-25 10:27:00,
2013-03-25 06:34:00,31.8,30.2,29.57,NNE,22,0.0,0.0,91,0.00,,,0.00,0.0,meteohub,2013-03-25 10:34:00,
2013-03-25 06:40:00,31.8,30.2,29.57,NNE,22,0.0,0.0,91,0.00,,,0.00,0.0,meteohub,2013-03-25 10:40:00,
2013-03-25 06:46:00,31.8,30.2,29.57,NNE,22,0.0,0.0,91,0.00,,,0.00,0.0,meteohub,2013-03-25 10:46:00,
2013-03-25 06:52:00,31.6,30.2,29.57,NNE,22,0.0,0.0,91,0.00,,,0.00,0.0,meteohub,2013-03-25 10:52:00,
2013-03-25 06:58:00,31.6,30.2,29.57,NNE,22,0.0,0.0,91,0.00,,,0.00,0.0,meteohub,2013-03-25 10:58:00,
2013-03-25 07:04:00,31.5,30.0,29.56,NNE,22,0.0,0.0,91,0.00,,,0.00,0.0,meteohub,2013-03-25 11:04:00,
2013-03-25 07:11:00,31.5,30.0,29.57,NNE,22,0.0,0.0,91,0.00,,,0.00,0.0,meteohub,2013-03-25 11:11:00,
2013-03-25 07:17:00,31.5,30.0,29.56,NNE,22,0.0,0.0,91,0.00,,,0.00,0.0,meteohub,2013-03-25 11:17:00,
2013-03-25 07:22:00,31.5,30.0,29.56,NNE,22,0.0,0.0,91,0.00,,,0.00,0.0,meteohub,2013-03-25 11:22:00,
2013-03-25 07:27:00,31.3,29.8,29.57,NNE,22,0.0,0.0,91,0.00,,,0.00,0.0,meteohub,2013-03-25 11:27:00,
2013-03-25 07:32:00,31.3,29.8,29.57,NNE,22,0.0,0.0,91,0.00,,,0.00,0.0,meteohub,2013-03-25 11:32:00,
2013-03-25 07:38:00,31.3,29.8,29.56,NNE,22,0.0,0.0,91,0.00,,,0.00,5.0,meteohub,2013-03-25 11:38:00,
2013-03-25 07:44:00,31.3,29.8,29.56,NNE,22,0.0,0.0,91,0.00,,,0.00,9.0,meteohub,2013-03-25 11:44:00,
2013-03-25 07:51:00,31.3,29.8,29.55,NNE,22,0.0,0.0,91,0.00,,,0.00,14.0,meteohub,2013-03-25 11:51:00,
2013-03-25 07:57:00,31.5,30.0,29.56,NNE,22,0.0,0.0,91,0.00,,,0.00,19.0,meteohub,2013-03-25 11:57:00,
2013-03-25 08:02:00,31.5,30.0,29.56,NNE,22,0.0,0.0,91,0.00,,,0.00,18.0,meteohub,2013-03-25 12:02:00,
2013-03-25 08:07:00,31.6,31.6,29.56,NNE,22,0.0,0.0,97,0.00,,,0.00,23.0,meteohub,2013-03-25 12:07:00,
2013-03-25 08:12:00,31.8,30.2,29.56,NNE,22,0.0,0.0,91,0.00,,,0.00,14.0,meteohub,2013-03-25 12:12:00,
2013-03-25 08:18:00,31.8,30.2,29.56,NNE,22,0.0,0.0,91,0.00,,,0.00,14.0,meteohub,2013-03-25 12:18:00,
2013-03-25 08:24:00,31.8,30.2,29.56,NNE,22,0.0,0.0,91,0.00,,,0.00,18.0,meteohub,2013-03-25 12:24:00,
2013-03-25 08:30:00,31.8,30.2,29.56,NNE,22,0.0,0.0,91,0.00,,,0.00,18.0,meteohub,2013-03-25 12:30:00,
2013-03-25 08:36:00,32.0,30.4,29.56,NNE,22,0.0,0.0,91,0.00,,,0.00,18.0,meteohub,2013-03-25 12:36:00,
2013-03-25 08:42:00,32.2,30.6,29.56,NNE,22,0.0,0.0,91,0.00,,,0.00,16.0,meteohub,2013-03-25 12:42:00,
2013-03-25 08:47:00,32.2,30.6,29.57,NNE,22,0.0,0.0,91,0.00,,,0.00,25.0,meteohub,2013-03-25 12:47:00,
2013-03-25 08:52:00,32.2,30.6,29.57,NNE,22,0.0,0.0,91,0.00,,,0.00,21.0,meteohub,2013-03-25 12:52:00,
2013-03-25 08:57:00,32.2,30.6,29.57,NNE,22,0.0,0.0,91,0.00,,,0.00,18.0,meteohub,2013-03-25 12:57:00,
2013-03-25 09:02:00,32.2,30.6,29.57,NNE,22,0.0,0.0,91,0.01,,,0.01,23.0,meteohub,2013-03-25 13:02:00,
2013-03-25 09:07:00,32.2,30.6,29.57,NNE,24,0.0,0.0,91,0.01,,,0.01,37.0,meteohub,2013-03-25 13:07:00,
2013-03-25 09:13:00,32.4,30.7,29.57,NNE,27,0.0,0.0,91,0.01,,,0.01,37.0,meteohub,2013-03-25 13:13:00,
2013-03-25 09:19:00,32.4,30.7,29.57,West,267,0.0,0.0,91,0.01,,,0.01,25.0,meteohub,2013-03-25 13:19:00,
2013-03-25 09:25:00,32.4,30.6,29.57,WSW,257,0.0,0.0,90,0.01,,,0.01,37.0,meteohub,2013-03-25 13:25:00,
2013-03-25 09:31:00,32.7,31.1,29.57,WSW,257,0.0,0.0,91,0.01,,,0.01,33.0,meteohub,2013-03-25 13:31:00,
2013-03-25 09:37:00,32.9,31.1,29.57,WSW,257,1.0,2.0,90,0.01,,,0.01,42.0,meteohub,2013-03-25 13:37:00,
2013-03-25 09:42:00,32.9,31.1,29.57,WSW,257,1.0,3.0,90,0.01,,,0.01,49.0,meteohub,2013-03-25 13:42:00,
2013-03-25 09:47:00,33.1,31.3,29.57,WSW,248,0.0,3.0,90,0.01,,,0.01,58.0,meteohub,2013-03-25 13:47:00,
2013-03-25 09:53:00,33.6,31.8,29.57,WSW,248,1.0,3.0,90,0.01,,,0.01,88.0,meteohub,2013-03-25 13:53:00,
2013-03-25 09:59:00,34.0,31.8,29.57,WSW,248,2.0,3.0,89,0.01,,,0.01,53.0,meteohub,2013-03-25 13:59:00,
2013-03-25 10:05:00,34.0,31.8,29.57,WSW,248,0.0,3.0,89,0.00,,,0.02,46.0,meteohub,2013-03-25 14:05:00,
2013-03-25 10:11:00,34.2,31.8,29.57,WSW,248,0.0,3.0,88,0.01,,,0.02,37.0,meteohub,2013-03-25 14:11:00,
2013-03-25 10:17:00,34.2,31.8,29.57,WSW,248,0.0,3.0,88,0.01,,,0.02,28.0,meteohub,2013-03-25 14:17:00,
2013-03-25 10:22:00,34.3,32.0,29.57,WSW,248,0.0,2.0,88,0.02,,,0.03,25.0,meteohub,2013-03-25 14:22:00,
2013-03-25 10:27:00,34.5,31.8,29.57,WSW,248,0.0,2.0,87,0.02,,,0.03,21.0,meteohub,2013-03-25 14:27:00,
2013-03-25 10:32:00,34.3,31.6,29.57,South,173,2.0,2.0,87,0.02,,,0.03,21.0,meteohub,2013-03-25 14:32:00,
2013-03-25 10:37:00,34.2,31.5,29.57,South,173,1.0,4.0,87,0.03,,,0.04,28.0,meteohub,2013-03-25 14:37:00,
2013-03-25 10:42:00,34.2,31.5,29.57,South,173,0.0,4.0,87,0.03,,,0.04,35.0,meteohub,2013-03-25 14:42:00,
2013-03-25 10:47:00,34.0,31.3,29.57,South,182,1.0,4.0,87,0.04,,,0.05,35.0,meteohub,2013-03-25 14:47:00,
2013-03-25 10:52:00,34.0,31.3,29.57,South,182,1.0,4.0,87,0.04,,,0.05,37.0,meteohub,2013-03-25 14:52:00,
2013-03-25 10:57:00,34.0,31.3,29.57,South,182,0.0,4.0,87,0.04,,,0.05,42.0,meteohub,2013-03-25 14:57:00,
2013-03-25 11:02:00,34.0,31.3,29.57,South,182,2.0,3.0,87,0.04,,,0.05,46.0,meteohub,2013-03-25 15:02:00,
2013-03-25 11:09:00,34.3,31.6,29.57,South,182,1.0,3.0,87,0.03,,,0.05,56.0,meteohub,2013-03-25 15:09:00,
2013-03-25 11:15:00,34.5,31.8,29.57,South,182,2.0,3.0,87,0.04,,,0.06,70.0,meteohub,2013-03-25 15:15:00,
2013-03-25 11:21:00,34.7,31.8,29.57,South,182,2.0,5.0,86,0.03,,,0.06,76.0,meteohub,2013-03-25 15:21:00,
2013-03-25 11:27:00,34.7,31.8,29.57,South,182,0.0,5.0,86,0.04,,,0.06,81.0,meteohub,2013-03-25 15:27:00,
2013-03-25 11:33:00,34.9,32.0,29.57,South,182,0.0,5.0,86,0.03,,,0.07,70.0,meteohub,2013-03-25 15:33:00,
2013-03-25 11:39:00,34.9,32.0,29.57,South,182,4.0,6.0,86,0.03,,,0.07,72.0,meteohub,2013-03-25 15:39:00,
2013-03-25 11:46:00,34.9,31.6,29.57,South,182,2.0,6.0,85,0.03,,,0.08,81.0,meteohub,2013-03-25 15:46:00,
2013-03-25 11:52:00,34.9,32.0,29.57,South,182,4.0,6.0,86,0.03,,,0.08,97.0,meteohub,2013-03-25 15:52:00,
2013-03-25 11:57:00,34.9,32.0,29.57,South,182,1.0,6.0,86,0.03,,,0.08,102.0,meteohub,2013-03-25 15:57:00,
2013-03-25 12:02:00,35.1,32.2,29.57,South,186,2.0,6.0,86,0.04,,,0.09,109.0,meteohub,2013-03-25 16:02:00,
2013-03-25 12:07:00,35.1,31.8,29.57,South,186,4.0,5.0,85,0.04,,,0.09,113.0,meteohub,2013-03-25 16:07:00,
2013-03-25 12:13:00,35.4,32.2,29.57,South,186,0.0,5.0,85,0.03,,,0.09,109.0,meteohub,2013-03-25 16:13:00,
2013-03-25 12:20:00,35.8,32.5,29.57,South,190,3.0,5.0,85,0.04,,,0.10,118.0,meteohub,2013-03-25 16:20:00,
2013-03-25 12:26:00,35.8,32.5,29.57,South,185,2.0,5.0,85,0.04,,,0.11,127.0,meteohub,2013-03-25 16:26:00,
2013-03-25 12:32:00,36.0,32.7,29.57,South,185,1.0,5.0,85,0.05,,,0.12,123.0,meteohub,2013-03-25 16:32:00,
2013-03-25 12:37:00,36.3,33.1,29.57,South,185,1.0,5.0,85,0.06,,,0.13,113.0,meteohub,2013-03-25 16:37:00,
2013-03-25 12:42:00,36.3,32.9,29.57,South,185,1.0,4.0,84,0.06,,,0.13,109.0,meteohub,2013-03-25 16:42:00,
2013-03-25 12:47:00,36.3,32.5,29.57,South,185,1.0,4.0,83,0.06,,,0.14,107.0,meteohub,2013-03-25 16:47:00,
2013-03-25 12:52:00,36.3,32.9,29.57,South,185,0.0,4.0,84,0.07,,,0.15,107.0,meteohub,2013-03-25 16:52:00,
2013-03-25 12:59:00,36.5,33.1,29.57,South,185,2.0,4.0,84,0.07,,,0.16,116.0,meteohub,2013-03-25 16:59:00,
2013-03-25 13:06:00,36.5,33.1,29.57,South,185,0.0,3.0,84,0.08,,,0.17,114.0,meteohub,2013-03-25 17:06:00,
2013-03-25 13:12:00,36.7,32.9,29.57,South,185,0.0,3.0,83,0.09,,,0.19,107.0,meteohub,2013-03-25 17:12:00,
2013-03-25 13:17:00,36.7,32.9,29.57,South,185,1.0,2.0,83,0.09,,,0.19,111.0,meteohub,2013-03-25 17:17:00,
2013-03-25 13:22:00,36.7,32.9,29.57,South,185,2.0,3.0,83,0.09,,,0.20,116.0,meteohub,2013-03-25 17:22:00,
2013-03-25 13:27:00,36.7,32.9,29.57,South,185,3.0,4.0,83,0.10,,,0.21,135.0,meteohub,2013-03-25 17:27:00,
2013-03-25 13:33:00,36.7,33.3,29.57,South,185,0.0,4.0,84,0.10,,,0.22,162.0,meteohub,2013-03-25 17:33:00,
2013-03-25 13:39:00,36.7,32.9,29.57,South,185,2.0,4.0,83,0.09,,,0.22,185.0,meteohub,2013-03-25 17:39:00,
2013-03-25 13:46:00,36.9,33.4,29.57,South,185,3.0,3.0,84,0.09,,,0.24,216.0,meteohub,2013-03-25 17:46:00,
2013-03-25 13:52:00,36.9,33.1,29.57,South,185,3.0,4.0,83,0.10,,,0.25,234.0,meteohub,2013-03-25 17:52:00,
2013-03-25 13:57:00,36.9,33.1,29.57,South,185,0.0,4.0,83,0.09,,,0.25,243.0,meteohub,2013-03-25 17:57:00,
2013-03-25 14:02:00,37.2,33.4,29.57,South,186,1.0,4.0,83,0.10,,,0.26,251.0,meteohub,2013-03-25 18:02:00,
2013-03-25 14:07:00,37.4,33.6,29.57,South,186,2.0,4.0,83,0.09,,,0.27,248.0,meteohub,2013-03-25 18:07:00,
2013-03-25 14:13:00,37.6,33.8,29.57,South,186,3.0,4.0,83,0.09,,,0.28,239.0,meteohub,2013-03-25 18:13:00,
2013-03-25 14:19:00,37.6,33.4,29.57,South,190,2.0,6.0,82,0.09,,,0.29,241.0,meteohub,2013-03-25 18:19:00,
2013-03-25 14:25:00,37.8,34.0,29.57,South,190,0.0,9.0,83,0.08,,,0.31,227.0,meteohub,2013-03-25 18:25:00,
2013-03-25 14:31:00,38.1,34.3,29.57,South,190,1.0,9.0,83,0.09,,,0.31,207.0,meteohub,2013-03-25 18:31:00,
2013-03-25 14:37:00,38.3,34.5,29.57,South,190,3.0,3.0,83,0.09,,,0.32,207.0,meteohub,2013-03-25 18:37:00,
2013-03-25 14:44:00,38.5,34.0,29.56,South,190,0.0,3.0,81,0.10,,,0.33,246.0,meteohub,2013-03-25 18:44:00,
2013-03-25 14:50:00,38.8,34.2,29.57,South,190,0.0,3.0,80,0.09,,,0.34,260.0,meteohub,2013-03-25 18:50:00,
2013-03-25 14:56:00,39.2,34.5,29.57,SSW,192,1.0,4.0,80,0.09,,,0.35,264.0,meteohub,2013-03-25 18:56:00,
2013-03-25 15:02:00,39.4,34.0,29.57,SSW,192,1.0,4.0,78,0.08,,,0.35,271.0,meteohub,2013-03-25 19:02:00,
2013-03-25 15:08:00,39.6,34.2,29.57,SSW,192,0.0,5.0,78,0.09,,,0.36,269.0,meteohub,2013-03-25 19:08:00,
2013-03-25 15:15:00,39.9,33.6,29.57,West,264,1.0,5.0,75,0.09,,,0.37,297.0,meteohub,2013-03-25 19:15:00,
2013-03-25 15:21:00,40.1,34.7,29.57,WNW,287,5.0,5.0,78,0.08,,,0.38,320.0,meteohub,2013-03-25 19:21:00,
2013-03-25 15:27:00,40.1,33.1,29.57,WSW,255,2.0,8.0,73,0.08,,,0.39,301.0,meteohub,2013-03-25 19:27:00,
2013-03-25 15:33:00,40.1,34.7,29.57,West,265,0.0,10.0,78,0.08,,,0.39,309.0,meteohub,2013-03-25 19:33:00,
2013-03-25 15:39:00,40.3,33.6,29.57,West,265,0.0,10.0,74,0.09,,,0.41,287.0,meteohub,2013-03-25 19:39:00,
2013-03-25 15:45:00,40.5,34.7,29.57,West,265,0.0,3.0,77,0.09,,,0.42,304.0,meteohub,2013-03-25 19:45:00,
2013-03-25 15:52:00,40.8,34.9,29.57,West,265,0.0,4.0,76,0.09,,,0.43,290.0,meteohub,2013-03-25 19:52:00,
2013-03-25 15:58:00,41.0,34.3,29.57,West,267,3.0,4.0,74,0.08,,,0.43,374.0,meteohub,2013-03-25 19:58:00,
2013-03-25 16:04:00,41.2,34.9,29.58,West,268,2.0,5.0,75,0.09,,,0.44,387.0,meteohub,2013-03-25 20:04:00,
2013-03-25 16:10:00,41.4,34.3,29.58,West,280,0.0,5.0,73,0.09,,,0.45,366.0,meteohub,2013-03-25 20:10:00,
2013-03-25 16:16:00,41.5,34.5,29.58,West,270,1.0,4.0,73,0.08,,,0.46,394.0,meteohub,2013-03-25 20:16:00,
2013-03-25 16:22:00,41.7,34.3,29.58,NNE,15,0.0,4.0,72,0.08,,,0.47,309.0,meteohub,2013-03-25 20:22:00,
2013-03-25 16:29:00,41.9,34.9,29.58,East,85,0.0,4.0,73,0.08,,,0.47,221.0,meteohub,2013-03-25 20:29:00,
2013-03-25 16:35:00,41.9,34.2,29.58,East,85,0.0,4.0,71,0.08,,,0.48,141.0,meteohub,2013-03-25 20:35:00,
2013-03-25 16:41:00,41.9,34.5,29.58,North,5,1.0,2.0,72,0.08,,,0.49,158.0,meteohub,2013-03-25 20:41:00,
2013-03-25 16:47:00,41.4,34.0,29.59,NW,325,3.0,4.0,72,0.07,,,0.49,141.0,meteohub,2013-03-25 20:47:00,
2013-03-25 16:53:00,41.2,34.2,29.59,NNE,32,3.0,11.0,73,0.07,,,0.50,309.0,meteohub,2013-03-25 20:53:00,
2013-03-25 16:59:00,41.2,34.5,29.59,NNE,25,1.0,11.0,74,0.07,,,0.50,243.0,meteohub,2013-03-25 20:59:00,
2013-03-25 17:05:00,41.4,34.7,29.59,NW,325,2.0,11.0,74,0.06,,,0.51,239.0,meteohub,2013-03-25 21:05:00,
2013-03-25 17:11:00,41.7,34.7,29.59,NNW,338,0.0,6.0,73,0.06,,,0.51,330.0,meteohub,2013-03-25 21:11:00,
2013-03-25 17:17:00,42.1,34.7,29.60,WSW,248,1.0,5.0,72,0.05,,,0.51,155.0,meteohub,2013-03-25 21:17:00,
2013-03-25 17:24:00,42.3,34.2,29.60,West,265,2.0,5.0,70,0.05,,,0.52,211.0,meteohub,2013-03-25 21:24:00,
2013-03-25 17:30:00,42.1,33.3,29.60,SW,217,0.0,3.0,68,0.05,,,0.52,185.0,meteohub,2013-03-25 21:30:00,
2013-03-25 17:36:00,42.1,33.6,29.60,SW,217,0.0,3.0,69,0.04,,,0.53,213.0,meteohub,2013-03-25 21:36:00,
2013-03-25 17:42:00,42.4,32.9,29.60,SW,217,3.0,3.0,66,0.04,,,0.53,142.0,meteohub,2013-03-25 21:42:00,
2013-03-25 17:47:00,42.6,31.3,29.60,SSW,194,2.0,5.0,61,0.04,,,0.53,230.0,meteohub,2013-03-25 21:47:00,
2013-03-25 17:54:00,43.0,32.4,29.60,West,268,1.0,6.0,63,0.04,,,0.54,229.0,meteohub,2013-03-25 21:54:00,
2013-03-25 18:00:00,43.2,29.8,29.61,West,269,11.0,11.0,56,0.03,,,0.54,116.0,meteohub,2013-03-25 22:00:00,
2013-03-25 18:06:00,43.2,29.8,29.61,WNW,284,7.0,12.0,56,0.04,,,0.55,76.0,meteohub,2013-03-25 22:06:00,
2013-03-25 18:12:00,43.2,29.3,29.62,West,265,2.0,12.0,55,0.04,,,0.55,111.0,meteohub,2013-03-25 22:12:00,
2013-03-25 18:19:00,43.2,28.9,29.62,West,272,4.0,14.0,54,0.03,,,0.55,137.0,meteohub,2013-03-25 22:19:00,
2013-03-25 18:25:00,43.3,29.1,29.62,WNW,289,0.0,14.0,54,0.03,,,0.55,130.0,meteohub,2013-03-25 22:25:00,
2013-03-25 18:31:00,43.5,29.3,29.62,West,264,2.0,14.0,54,0.03,,,0.56,105.0,meteohub,2013-03-25 22:31:00,
2013-03-25 18:37:00,43.2,28.9,29.62,West,268,4.0,14.0,54,0.03,,,0.56,47.0,meteohub,2013-03-25 22:37:00,
2013-03-25 18:43:00,42.6,28.9,29.63,WNW,296,7.0,8.0,55,0.03,,,0.56,42.0,meteohub,2013-03-25 22:43:00,
2013-03-25 18:49:00,42.1,28.8,29.63,WNW,290,0.0,7.0,56,0.02,,,0.56,37.0,meteohub,2013-03-25 22:49:00,
2013-03-25 18:55:00,41.7,29.3,29.64,WNW,284,0.0,9.0,58,0.02,,,0.56,30.0,meteohub,2013-03-25 22:55:00,
2013-03-25 19:01:00,41.4,28.6,29.64,WNW,285,1.0,9.0,57,0.01,,,0.56,30.0,meteohub,2013-03-25 23:01:00,
2013-03-25 19:07:00,41.2,27.9,29.65,WNW,284,1.0,5.0,56,0.01,,,0.56,23.0,meteohub,2013-03-25 23:07:00,
2013-03-25 19:14:00,41.0,28.9,29.65,WNW,292,0.0,6.0,59,0.02,,,0.57,16.0,meteohub,2013-03-25 23:14:00,
2013-03-25 19:20:00,40.8,28.8,29.65,WNW,294,0.0,6.0,59,0.02,,,0.57,9.0,meteohub,2013-03-25 23:20:00,
2013-03-25 19:26:00,40.6,28.6,29.65,West,279,0.0,6.0,59,0.02,,,0.57,5.0,meteohub,2013-03-25 23:26:00,
2013-03-25 19:32:00,40.3,27.9,29.65,NW,307,0.0,4.0,58,0.01,,,0.57,0.0,meteohub,2013-03-25 23:32:00,
2013-03-25 19:38:00,40.3,29.1,29.66,WNW,282,4.0,4.0,61,0.01,,,0.57,0.0,meteohub,2013-03-25 23:38:00,
2013-03-25 19:44:00,40.3,28.2,29.67,NW,305,0.0,6.0,59,0.01,,,0.57,0.0,meteohub,2013-03-25 23:44:00,
2013-03-25 19:51:00,40.3,27.5,29.67,WNW,294,1.0,6.0,57,0.01,,,0.57,0.0,meteohub,2013-03-25 23:51:00,
2013-03-25 19:57:00,40.1,28.0,29.67,WNW,294,1.0,6.0,59,0.01,,,0.57,0.0,meteohub,2013-03-25 23:57:00,
2013-03-25 20:02:00,39.7,28.2,29.68,WNW,294,2.0,6.0,60,0.01,,,0.57,0.0,meteohub,2013-03-26 00:02:00,
2013-03-25 20:07:00,39.4,28.2,29.68,WNW,294,0.0,3.0,61,0.01,,,0.57,0.0,meteohub,2013-03-26 00:07:00,
2013-03-25 20:12:00,39.0,27.5,29.68,WNW,294,0.0,3.0,60,0.00,,,0.57,0.0,meteohub,2013-03-26 00:12:00,
2013-03-25 20:17:00,38.5,27.7,29.68,WNW,297,2.0,2.0,62,0.00,,,0.57,0.0,meteohub,2013-03-26 00:17:00,
2013-03-25 20:22:00,38.3,29.7,29.68,WNW,297,0.0,7.0,68,0.00,,,0.57,0.0,meteohub,2013-03-26 00:22:00,
2013-03-25 20:27:00,38.1,28.4,29.69,SW,227,0.0,7.0,65,0.00,,,0.57,0.0,meteohub,2013-03-26 00:27:00,
2013-03-25 20:33:00,37.9,28.6,29.69,West,281,0.0,7.0,66,0.00,,,0.57,0.0,meteohub,2013-03-26 00:33:00,
2013-03-25 20:42:00,37.6,28.9,29.70,West,281,0.0,3.0,68,0.00,,,0.57,0.0,meteohub,2013-03-26 00:42:00,
2013-03-25 20:49:00,36.9,29.3,29.70,SW,221,1.0,2.0,71,0.00,,,0.57,0.0,meteohub,2013-03-26 00:49:00,
2013-03-25 20:55:00,36.7,27.5,29.70,WNW,288,2.0,4.0,66,0.00,,,0.57,0.0,meteohub,2013-03-26 00:55:00,
2013-03-25 21:01:00,36.9,27.3,29.71,WNW,296,1.0,5.0,65,0.00,,,0.57,0.0,meteohub,2013-03-26 01:01:00,
2013-03-25 21:07:00,36.9,27.0,29.71,WNW,299,1.0,5.0,64,0.00,,,0.57,0.0,meteohub,2013-03-26 01:07:00,
2013-03-25 21:12:00,37.0,27.1,29.71,WNW,299,0.0,3.0,64,0.00,,,0.57,0.0,meteohub,2013-03-26 01:12:00,
2013-03-25 21:17:00,36.9,28.0,29.72,WSW,257,5.0,5.0,67,0.00,,,0.57,0.0,meteohub,2013-03-26 01:17:00,
2013-03-25 21:22:00,37.0,27.9,29.72,NW,323,4.0,7.0,66,0.00,,,0.57,0.0,meteohub,2013-03-26 01:22:00,
2013-03-25 21:29:00,37.6,27.7,29.72,North,355,0.0,7.0,64,0.00,,,0.57,0.0,meteohub,2013-03-26 01:29:00,
2013-03-25 21:35:00,37.6,27.3,29.73,NNW,340,0.0,7.0,63,0.00,,,0.57,0.0,meteohub,2013-03-26 01:35:00,
2013-03-25 21:41:00,37.8,26.6,29.73,NNW,340,1.0,3.0,61,0.00,,,0.57,0.0,meteohub,2013-03-26 01:41:00,
2013-03-25 21:47:00,38.1,27.7,29.73,WSW,250,3.0,3.0,63,0.00,,,0.57,0.0,meteohub,2013-03-26 01:47:00,
2013-03-25 21:52:00,38.3,26.4,29.73,WNW,298,2.0,7.0,59,0.00,,,0.57,0.0,meteohub,2013-03-26 01:52:00,
2013-03-25 21:57:00,38.5,26.2,29.73,West,276,2.0,7.0,58,0.00,,,0.57,0.0,meteohub,2013-03-26 01:57:00,
2013-03-25 22:02:00,39.0,25.9,29.73,WNW,284,2.0,15.0,56,0.00,,,0.57,0.0,meteohub,2013-03-26 02:02:00,
2013-03-25 22:07:00,39.2,26.4,29.73,West,265,2.0,15.0,57,0.00,,,0.57,0.0,meteohub,2013-03-26 02:07:00,
2013-03-25 22:12:00,39.0,26.8,29.73,West,269,0.0,15.0,58,0.00,,,0.57,0.0,meteohub,2013-03-26 02:12:00,
2013-03-25 22:17:00,38.7,25.5,29.73,WNW,286,2.0,11.0,56,0.00,,,0.57,0.0,meteohub,2013-03-26 02:17:00,
2013-03-25 22:22:00,38.7,26.4,29.73,WNW,290,3.0,11.0,58,0.00,,,0.57,0.0,meteohub,2013-03-26 02:22:00,
2013-03-25 22:27:00,38.7,25.9,29.73,WNW,288,2.0,11.0,57,0.00,,,0.57,0.0,meteohub,2013-03-26 02:27:00,
2013-03-25 22:32:00,38.5,26.2,29.73,West,280,0.0,11.0,58,0.00,,,0.57,0.0,meteohub,2013-03-26 02:32:00,
2013-03-25 22:37:00,38.1,26.6,29.73,West,259,2.0,5.0,60,0.00,,,0.57,0.0,meteohub,2013-03-26 02:37:00,
2013-03-25 22:42:00,37.8,26.2,29.73,West,259,0.0,5.0,60,0.00,,,0.57,0.0,meteohub,2013-03-26 02:42:00,
2013-03-25 22:48:00,37.4,27.5,29.73,West,259,0.0,3.0,64,0.00,,,0.57,0.0,meteohub,2013-03-26 02:48:00,
2013-03-25 22:54:00,36.7,26.8,29.74,West,259,0.0,2.0,64,0.00,,,0.57,0.0,meteohub,2013-03-26 02:54:00,
2013-03-25 23:00:00,36.1,26.6,29.74,West,276,0.0,3.0,65,0.00,,,0.57,0.0,meteohub,2013-03-26 03:00:00,
2013-03-25 23:07:00,36.0,26.1,29.74,WSW,242,0.0,3.0,64,0.00,,,0.57,0.0,meteohub,2013-03-26 03:07:00,
2013-03-25 23:13:00,36.0,26.4,29.74,WSW,242,0.0,4.0,65,0.00,,,0.57,0.0,meteohub,2013-03-26 03:13:00,
2013-03-25 23:19:00,35.8,27.3,29.74,SW,236,0.0,4.0,68,0.00,,,0.57,0.0,meteohub,2013-03-26 03:19:00,
2013-03-25 23:25:00,35.4,27.0,29.75,West,277,0.0,3.0,68,0.00,,,0.57,0.0,meteohub,2013-03-26 03:25:00,
2013-03-25 23:31:00,35.1,27.3,29.75,West,277,0.0,3.0,70,0.00,,,0.57,0.0,meteohub,2013-03-26 03:31:00,
2013-03-25 23:37:00,35.1,27.0,29.75,West,280,0.0,3.0,69,0.00,,,0.57,0.0,meteohub,2013-03-26 03:37:00,
2013-03-25 23:42:00,34.9,27.1,29.75,West,280,0.0,2.0,70,0.00,,,0.57,0.0,meteohub,2013-03-26 03:42:00,
2013-03-25 23:47:00,34.9,26.4,29.75,SSW,192,1.0,3.0,68,0.00,,,0.57,0.0,meteohub,2013-03-26 03:47:00,
2013-03-25 23:52:00,35.1,27.3,29.75,South,186,1.0,3.0,70,0.00,,,0.57,0.0,meteohub,2013-03-26 03:52:00,
2013-03-25 23:59:00,34.9,27.1,29.75,South,186,2.0,4.0,70,0.00,,,0.57,0.0,meteohub,2013-03-26 03:59:00,